South Bend, IN

10:11 AM EDT on May 27, 2018 (GMT -0400)
South Bend Regional

Weather History for KSBN - June, 2015

Change the Weather History Date:

Thursday, June 18, 2015

  Actual Average Record
Temperature  
Mean Temperature 74 °F 70 °F  
Max Temperature 83 °F 80 °F 98 °F (1994)
Min Temperature 64 °F 60 °F 41 °F (1909)
Degree Days  
Heating Degree Days 0 1  
Month to date heating degree days 19 35  
Since 1 June heating degree days 19 35  
Since 1 July heating degree days 6623 6289  
Cooling Degree Days 9 6  
Month to date cooling degree days 99 78  
Year to date cooling degree days 185 134  
Since 1 June cooling degree days 99 78  
Growing Degree Days 24 (Base 50)    
Moisture  
Dew Point 67 °F    
Average Humidity 79    
Maximum Humidity 97    
Minimum Humidity 60    
Precipitation  
Precipitation 0.01 in 0.13 in 1.57 in (1996)
Month to date precipitation 2.04 2.35  
Year to date precipitation 15.13 16.07  
Snow  
Snow 0.00 in - - ()
Month to date snowfall 0.0  
Since 1 June snowfall 0.0  
Snow Depth 0.00 in    
Sea Level Pressure  
Sea Level Pressure 29.96 in    
Wind  
Wind Speed 8 mph (WSW)    
Max Wind Speed 18 mph    
Max Gust Speed 22 mph    
Visibility 8 miles    
Events      
T = Trace of Precipitation, MM = Missing Value Source: NWS Daily Summary

Daily Weather History Graph

Daily Weather History Graph

Search for Another Location

Airport or City:

Astronomy

Jun. 18, 2015 Rise Set
Actual Time 6:10 AM EDT 9:22 PM EDT
Civil Twilight 5:36 AM EDT 9:56 PM EDT
Nautical Twilight 4:52 AM EDT 10:40 PM EDT
Astronomical Twilight 3:59 AM EDT 11:33 PM EDT
Moon 8:22 AM EDT (6/18) 10:53 PM EDT (6/18)
Length of Visible Light 16h 20m
Length of Day
15h 12m
Waxing Crescent, 5% of the Moon is Illuminated
Jun 18
Waxing Crescent
Jun 24
First Quarter
Jul 1
Full
Jul 8
Last Quarter
Jul 15
New

Hourly Weather History & Observations

Time (EDT) Temp. Heat Index Dew Point Humidity Pressure Visibility Wind Dir Wind Speed Gust Speed Precip Events Conditions
12:21 AM 68.0 °F - 64.9 °F 90% 29.97 in 8.0 mi WNW 3.5 mph - N/A   Overcast
12:54 AM 66.9 °F - 64.9 °F 93% 29.96 in 7.0 mi West 4.6 mph - N/A   Overcast
1:22 AM 66.2 °F - 64.4 °F 94% 29.97 in 7.0 mi WNW 3.5 mph - N/A   Overcast
1:54 AM 66.9 °F - 64.9 °F 93% 29.96 in 6.0 mi WNW 3.5 mph - N/A   Overcast
2:54 AM 66.9 °F - 64.9 °F 93% 29.96 in 6.0 mi Calm Calm - N/A   Overcast
3:54 AM 68.0 °F - 64.9 °F 90% 29.96 in 6.0 mi Calm Calm - N/A   Overcast
4:09 AM 66.9 °F - 64.9 °F 93% 29.97 in 5.0 mi Calm Calm - N/A   Overcast
4:29 AM 68.0 °F - 66.0 °F 93% 29.97 in 6.0 mi WSW 4.6 mph - N/A   Overcast
4:54 AM 68.0 °F - 66.0 °F 93% 29.96 in 6.0 mi WSW 4.6 mph - N/A   Overcast
5:54 AM 68.0 °F - 66.0 °F 93% 29.96 in 5.0 mi Calm Calm - N/A   Overcast
6:49 AM 68.0 °F - 66.2 °F 94% 29.97 in 4.0 mi SSW 3.5 mph - N/A   Overcast
6:54 AM 68.0 °F - 66.9 °F 96% 29.96 in 4.0 mi SW 3.5 mph - N/A   Overcast
7:04 AM 69.1 °F - 66.9 °F 93% 29.97 in 4.0 mi WSW 3.5 mph - N/A   Overcast
7:22 AM 69.1 °F - 66.9 °F 93% 29.97 in 2.5 mi SW 4.6 mph - N/A   Overcast
7:54 AM 70.0 °F - 68.0 °F 93% 29.96 in 2.5 mi SW 6.9 mph - N/A   Overcast
8:44 AM 72.0 °F - 69.1 °F 91% 29.96 in 2.0 mi WSW 4.6 mph - N/A   Overcast
8:54 AM 72.0 °F - 69.1 °F 91% 29.96 in 7.0 mi WSW 8.1 mph - N/A   Overcast
9:54 AM 73.9 °F - 70.0 °F 87% 29.97 in 8.0 mi SW 10.4 mph - N/A   Overcast
10:54 AM 75.9 °F - 71.1 °F 85% 29.97 in 10.0 mi WSW 11.5 mph - N/A   Overcast
11:47 AM 77.0 °F - 71.1 °F 82% 29.97 in 10.0 mi SW 13.8 mph - N/A   Mostly Cloudy
11:54 AM 78.1 °F - 71.1 °F 79% 29.96 in 10.0 mi SW 10.4 mph - N/A   Mostly Cloudy
12:04 PM 78.8 °F - 71.6 °F 78% 29.97 in 10.0 mi SW 9.2 mph - N/A   Mostly Cloudy
12:51 PM 80.6 °F 84.6 °F 71.6 °F 74% 29.97 in 10.0 mi SSW 12.7 mph - N/A   Scattered Clouds
12:54 PM 80.1 °F 83.8 °F 72.0 °F 76% 29.96 in 10.0 mi SW 11.5 mph - N/A   Mostly Cloudy
12:59 PM 79.0 °F - 71.1 °F 77% 29.97 in 10.0 mi SW 11.5 mph - N/A   Mostly Cloudy
1:54 PM 81.0 °F 84.9 °F 71.1 °F 72% 29.94 in 10.0 mi SW 15.0 mph - N/A   Mostly Cloudy
2:01 PM 80.6 °F 83.9 °F 69.8 °F 70% 29.95 in 10.0 mi SW 13.8 mph - N/A   Mostly Cloudy
2:54 PM 81.0 °F 85.2 °F 72.0 °F 74% 29.93 in 10.0 mi WSW 12.7 mph - N/A   Mostly Cloudy
3:54 PM 82.0 °F 86.7 °F 72.0 °F 71% 29.91 in 10.0 mi West 12.7 mph - N/A   Mostly Cloudy
4:54 PM 81.0 °F 84.4 °F 70.0 °F 69% 29.91 in 10.0 mi WNW 13.8 mph - 0.01 in   Partly Cloudy
5:54 PM 80.1 °F 82.9 °F 69.1 °F 69% 29.91 in 10.0 mi WNW 13.8 mph - N/A   Partly Cloudy
6:54 PM 78.1 °F - 64.9 °F 64% 29.92 in 10.0 mi NW 13.8 mph - N/A   Partly Cloudy
7:54 PM 75.0 °F - 61.0 °F 62% 29.94 in 10.0 mi WNW 9.2 mph - N/A   Clear
8:54 PM 72.0 °F - 61.0 °F 68% 29.96 in 10.0 mi West 5.8 mph - N/A   Clear
9:54 PM 69.1 °F - 60.1 °F 73% 29.98 in 10.0 mi West 4.6 mph - N/A   Clear
10:54 PM 66.9 °F - 60.1 °F 79% 29.99 in 10.0 mi West 3.5 mph - N/A   Clear
11:54 PM 66.0 °F - 61.0 °F 84% 29.99 in 10.0 mi NNW 10.4 mph - N/A   Clear